www.pogodaiklimat.ru

Погода и климат >> Архив погоды >> Маврикий >> Saint Brandon Saint Raphael


ПОГОДА в Saint Brandon Saint Raphael

  • Прогноз погоды в Saint Brandon Saint Raphael
  • Монитор погоды в Saint Brandon Saint Raphael
  • Климат города

АРХИВ ПОГОДЫ в Saint Brandon Saint Raphael

Время (UTC), дата Ветер
(напр.,м/с)
 
Видим.   Явления Облачность Т
(С)
Тd
(С)
f
(%)
Тe
(С)
Тes
(С)
Комфортность P
(гПа)
Po
(гПа)
Тmin
(С)
Tmax
(С)
R
(мм)
R24
(мм)
S
(см)
03 9.07 ЮВ 8 18 км осадки на расстоянии 6/6 480 м
[Cu Sc]
+24.1 +19.3 75 +29 +29 душно 1018.1 1018.0
06 9.07 ЮВ 4 18 км осадки на расстоянии 6 баллов +25.2 +20.1 73 0.8
09 9.07 ЮВ 10 20 км осадки на расстоянии 5/5 480 м
[Cu Sc]
+25.4 +19.6 70 +31 +31 очень
душно
1017.8 1018.0
12 9.07 ЮВ 6 18 км осадки на расстоянии 6 баллов +25.0 +21.1 79
15 9.07 ЮВ 12 20 км осадки на расстоянии 3/3 480 м
[Cu Sc]
+24.0 +19.8 77 +29 +29 душно 1018.7 1019.0
00 10.07 ЮВ 6 18 км осадки на расстоянии {ливн. осадки} 3 балла +23.7 +19.9 79
03 10.07 ЮВ 13 18 км осадки на расстоянии 3/3 480 м
[Cu Sc]
+23.5 +19.2 77 +28 +28 душно 1019.1 1019.0
06 10.07 ЮВ 6 18 км осадки на расстоянии 6 баллов +24.8 +20.2 76 0.5
09 10.07 ЮВ 11 20 км осадки на расстоянии 4/4 480 м
[Cu Sc]
+25.0 +19.9 73 +31 +31 очень
душно
1019.2 1019.0
12 10.07 ЮВ 5 25 км 5 баллов +25.4 +19.2 69
15 10.07 ЮВ 13 20 км 3/3 540 м
[Cu Sc]
+24.0 +17.7 68 +28 +28 душно 1020.1 1020.0
18 10.07 ЮВ 12 20 км 3/3 540 м
[Cu Sc]
+24.0 +18.2 70 +28 +28 душно 1021.2 1021.0 +25.3
00 11.07 ЮВ 8 20 км 1/1 540 м
[Cu Sc]
+23.5 +17.7 70 +28 +28 душно 1019.6 1020.0
03 11.07 ЮВ 8 20 км 1/1 540 м
[Cu Sc]
+23.5 +18.0 71 +28 +28 душно 1019.8 1020.0
06 11.07 ЮВ 4 25 км 3 балла +26.1 +19.1 65 1019.3 1019.7
09 11.07 В 8 30 км 1/1 600 м
[Cu Sc]
+27.0 +19.5 64 +33 +35 очень
душно
1018.7 1019.0
12 11.07 ЮВ 8 30 км 4/4 600 м
[Cu Sc]
+26.0 +20.1 70 +32 +32 очень
душно
1018.4 1018.0
15 11.07 ЮВ 9 18 км осадки на расстоянии 6/6 500 м
[Cu Sc]
+24.5 +19.9 76 +30 +30 очень
душно
1019.4 1019.0
18 11.07 ЮВ 5 20 км 4 балла +24.9 +20.5 77
00 12.07 ЮВ 9 20 км осадки на расстоянии 4/4 480 м
[Cu Sc]
+24.1 +20.8 82 +30 +30 очень
душно
1018.1 1018.0
03 12.07 В 5 15 км осадки на расстоянии {ливн. осадки} 9/9 450 м
[Cu Sc]
+23.8 +21.1 85 +30 +30 очень
душно
1018.7 1019.0 1
06 12.07 ЮВ 10 15 км осадки на расстоянии {ливн. осадки} 8/8 450 м
[Cu Sc]
+24.0 +21.0 83 +30 +30 очень
душно
1020.0 1020.0 +22.3 1
09 12.07 ЮВ 9 15 км осадки на расстоянии 8/8 480 м
[Cu Sc]
+25.0 +20.6 77 +31 +31 очень
душно
1018.8 1019.0
12 12.07 ЮВ 5 15 км осадки на расстоянии 9 баллов +24.4 +21.1 82
15 12.07 ЮВ 10 10 км осадки на расстоянии 10/10 240 м
[Cu Sc]
+23.2 +19.8 81 +30 +30 очень
душно
1018.9 1019.0
18 12.07 ЮВ 5 15 км осадки на расстоянии 10 баллов +24.6 +20.5 78
00 13.07 ЮВ 5 18 км осадки на расстоянии 4 балла +24.4 +18.9 71
03 13.07 ЮВ 9 25 км 3/3 540 м
[Cu Sc]
+24.0 +17.7 68 +28 +28 душно 1018.5 1019.0
06 13.07 ЮВ 4 25 км 4 балла +24.9 +17.9 65
09 13.07 ЮВ 8 25 км 3/3 570 м
[Cu Sc]
+25.0 +18.1 66 +29 +31 душно 1018.3 1018.0
12 13.07 ЮВ 5 25 км 5 баллов +25.1 +18.5 67
15 13.07 ЮВ 9 20 км 4/4 540 м
[Cu Sc]
+24.0 +19.1 74 +29 +29 душно 1017.9 1018.0
18 13.07 0 н/о +24.2
00 14.07 ЮВ 4 20 км 3 балла +24.2 +17.3 65
03 14.07 ЮВ 7 25 км 3/3 540 м
[Cu Sc]
+23.5 +18.1 72 +28 +28 душно 1017.8 1018.0
06 14.07 ЮВ 3 25 км 3 балла +24.9 +18.8 69
09 14.07 ЮВ 7 30 км 3/3 600 м
[Cu Sc As op]
+25.0 +18.5 67 +30 +32 душно 1017.0 1017.0
12 14.07 ЮВ 4 30 км 3 балла +25.2 +18.7 67
15 14.07 ЮВ 8 20 км 3/3 570 м
[Cu Sc]
+24.0 +18.3 70 +28 +28 душно 1017.2 1017.0
18 14.07 ЮВ 4 20 км 3 балла +23.9 +19.0 74
00 15.07 ЮВ 3 20 км 1/1 540 м
[Cu Sc]
+22.8 +18.1 75 +28 +28 душно 1016.3 1016.0
03 15.07 ЮВ 2 25 км 1/1 600 м
[Cu Sc]
+23.0 +18.4 75 +29 +29 очень
душно
1016.9 1017.0
06 15.07 ЮВ 1 30 км 1 балл +25.4 +19.0 68 1016.9 1016.8
09 15.07 ЮВ 2 30 км 1/1 660 м
[Cu hum]
+25.6 +18.5 65 +30 +43 душно 1016.3 1016.0
12 15.07 ЮВ 3 30 км 1/1 600 м
[Cu Sc]
+25.0 +18.5 67 +30 +32 душно 1015.4 1015.0
15 15.07 ЮВ 4 20 км 3/3 570 м
[Cu Sc]
+24.2 +20.1 78 +30 +30 очень
душно
1016.2 1016.0
18 15.07 ЮВ 2 20 км 3 балла +24.4 +18.4 69
00 16.07 В 1 20 км 1 балл +22.8 +18.0 74

 

Местоположение метеостанции Saint Brandon Saint Raphael (Маврикий): широта -16.45 долгота 59.62 высота над уровнем моря 4 м.

В архиве по умолчанию представлена погода в Saint Brandon Saint Raphael за последнюю неделю. Архивные данные за месяц целиком и за предыдущие месяцы, начиная с января 2011 года, Вы можете получить, выбрав интересующий диапазон дат из раскрывающегося списка и нажав кнопку "Ввод!".


*Определитесь, кто Вы:
робот инопланетянин человек

Внимание! Время в таблицах - всемирное. Для получения местного времени необходимо прибавить поправку, которая в Saint Brandon Saint Raphael равна 4 ч.

Смотрите также архив погоды в соседних городах и на ближайших метеорологических станциях:

Погода в Vacoas Mauritius (Маврикий) (483 км)
Погода в Sir Seewoosagur Ramgoolam Airport (Маврикий) (488 км)
Погода в Rodrigues (Маврикий) (539 км)
Погода в Sir Gaetan Duval Airport (Маврикий) (540 км)
Погода в Serge-Frolow (Реюньон) (552 км)
Погода в Saint-Denis (Реюньон) (655 км)
Погода в Agalega (Маврикий) (738 км)
Погода в Antalaha (Мадагаскар) (1018 км)
Погода в Sambava (Мадагаскар) (1042 км)
Погода в Nosy Boraha (Мадагаскар) (1046 км)

Пояснения к столбцам:

Ветер - указаны скорость ветра в м/с - средняя за 10 мин, порывы в срок и между сроками (в фигурных скобках) и направление, откуда дует ветер: С - северный, СВ - северо-восточный, В - восточный, ЮВ - юго-восточный, Ю - южный, ЮЗ - юго-западный, З - западный, СЗ - северо-западный.
Видимость - горизонтальная дальность видимости в метрах или километрах. При видимости от 1 до 10 км при отсутствии осадков обычно наблюдается дымка, при ухудшении видимости до 1 км и менее - туман. В сухую погоду видимость может ухудшаться дымом, пылью или мглою.
Явления - указаны атмосферные явления, наблюдавшиеся в срок или в последний час перед сроком; фигурными скобками обозначены явления, наблюдавшиеся между сроками (за 1-3 часа до срока); квадратными скобками обозначены град или гололедные отложения с указанием их диаметра в мм.
Облачность - указаны через наклонную черту общая и нижняя облачность в баллах и высота нижней границы облаков в метрах; квадратными скобками обозначены формы облаков: Ci - перистые, Cs - перисто-слоистые, Cc - перисто-кучевые, Ac - высококучевые, As - высокослоистые, Sc - слоисто-кучевые, Ns - слоисто-дождевые, Cu - кучевые, Cb - кучево-дождевые. Подробнее классификацию облаков см. в Атласе облаков (PDF).
T - Температура воздуха - температура, измеренная на высоте 2 м над землей.
Td - Температура точки росы - температура, при понижении до которой содержащийся в воздухе водяной пар достигнет насыщения.
f - Относительная влажность воздуха - влажноcть воздуха, измеренная на высоте 2 м над землей.
Te - Эффективная температура - температура, которую ощущает одетый по сезону человек в тени. Характеристика душности погоды. При расчете учитывается влияние влажности воздуха и скорости ветра на теплоощущения человека.
Tes - Эффективная температура на солнце - температура, которую ощущает человек, с поправкой на солнечный нагрев. Характеристика знойности погоды. Зависит от высоты солнца над горизонтом, облачности и скорости ветра. Ночью, в пасмурную погоду, а также при ветре 12 м/с и более поправка равна нулю.
P - Атмосферное давление - приведенное к уровню моря атмосферное давление.
Po - Атмосферное давление - измеренное на уровне метеостанции атмосферное давление.
Tmin - Минимальная температура - минимум температуры воздуха на высоте 2 м над землей.
Tmax - Максимальная температура - максимум температуры воздуха на высоте 2 м над землей.
R - Количество осадков - Количество выпавших осадков за период времени, мм. При наведении курсора мыши на число - период времени, за который выпало указанное количество осадков.
R24 - Количество осадков - Количество выпавших осадков за 24 часа, мм.
S - Снежный покров - Высота снежного покрова, см. При наведении курсора мыши на число - состояние снежного покрова и степень покрытия местности в баллах.